TimeEDT,TemperatureF,Dew PointF,Humidity,Sea Level PressureIn,VisibilityMPH,Wind Direction,Wind SpeedMPH,Gust SpeedMPH,PrecipitationIn,Events,Conditions,WindDirDegrees,DateUTC
12:13 AM,51.8,48.2,88,30.03,5.0,Variable,6.9,-,0.03,Rain-Thunderstorm,Thunderstorms and Rain,0,2013-05-22 04:13:00
12:18 AM,51.8,48.2,88,30.05,2.0,Variable,6.9,21.9,0.11,Rain-Thunderstorm,Heavy Thunderstorms and Rain,0,2013-05-22 04:18:00
12:53 AM,51.1,48.9,92,29.99,2.5,SE,10.4,-,0.40,Rain-Thunderstorm,Thunderstorms and Rain,130,2013-05-22 04:53:00
1:06 AM,51.8,48.2,88,29.94,3.0,ESE,9.2,-,0.07,Rain-Thunderstorm,Heavy Thunderstorms and Rain,120,2013-05-22 05:06:00
1:36 AM,51.8,48.2,88,29.89,5.0,SE,10.4,-,0.16,Rain,Light Rain,140,2013-05-22 05:36:00
1:38 AM,51.8,48.2,88,29.88,5.0,SE,10.4,-,0.16,Rain-Thunderstorm,Light Thunderstorms and Rain,130,2013-05-22 05:38:00
1:53 AM,52.0,48.9,89,29.98,5.0,WSW,13.8,18.4,0.17,Rain,Light Rain,250,2013-05-22 05:53:00
2:15 AM,51.8,48.2,88,29.95,5.0,Calm,Calm,-,0.01,Rain,Light Rain,0,2013-05-22 06:15:00
2:39 AM,51.8,50.0,94,29.93,2.0,North,6.9,-,0.13,Rain-Thunderstorm,Heavy Thunderstorms and Rain,360,2013-05-22 06:39:00
2:53 AM,52.0,50.0,93,29.99,3.0,Calm,Calm,-,0.16,Rain-Thunderstorm,Thunderstorms and Rain,0,2013-05-22 06:53:00
3:11 AM,51.8,50.0,94,29.95,2.5,NW,3.5,-,0.08,Rain,Heavy Rain,320,2013-05-22 07:11:00
3:27 AM,51.8,50.0,94,29.96,2.0,Calm,Calm,-,0.14,Rain-Thunderstorm,Heavy Thunderstorms and Rain,0,2013-05-22 07:27:00
3:53 AM,52.0,50.0,93,29.99,3.0,South,4.6,-,0.25,Rain-Thunderstorm,Thunderstorms and Rain,180,2013-05-22 07:53:00
4:18 AM,51.8,50.0,94,29.92,2.0,ESE,4.6,-,0.10,Rain,Rain,120,2013-05-22 08:18:00
4:53 AM,51.1,50.0,96,29.93,2.0,South,6.9,-,0.19,Rain,Light Rain,170,2013-05-22 08:53:00
5:35 AM,51.8,48.2,88,29.88,3.0,South,4.6,-,0.00,,Overcast,180,2013-05-22 09:35:00
5:53 AM,52.0,48.9,89,29.94,3.0,Calm,Calm,-,0.00,,Overcast,0,2013-05-22 09:53:00
6:53 AM,52.0,48.9,89,29.98,10.0,West,3.5,-,0.01,,Overcast,270,2013-05-22 10:53:00
7:53 AM,53.1,50.0,89,29.96,10.0,Calm,Calm,-,N/A,,Overcast,0,2013-05-22 11:53:00
8:53 AM,55.0,51.1,86,29.96,10.0,Calm,Calm,-,N/A,,Overcast,0,2013-05-22 12:53:00
9:53 AM,55.9,52.0,87,29.95,10.0,Calm,Calm,-,N/A,,Overcast,0,2013-05-22 13:53:00
10:53 AM,57.9,54.0,87,29.96,10.0,Calm,Calm,-,N/A,,Overcast,0,2013-05-22 14:53:00
11:53 AM,59.0,54.0,83,29.97,10.0,SE,5.8,-,N/A,,Overcast,130,2013-05-22 15:53:00
12:53 PM,61.0,55.0,81,29.97,10.0,ENE,4.6,-,N/A,,Overcast,70,2013-05-22 16:53:00
1:53 PM,59.0,55.0,87,29.96,10.0,ESE,6.9,-,N/A,,Overcast,110,2013-05-22 17:53:00
2:53 PM,59.0,55.0,87,29.95,10.0,ESE,6.9,-,N/A,,Overcast,120,2013-05-22 18:53:00
3:53 PM,60.1,55.0,83,29.95,10.0,East,6.9,-,N/A,,Overcast,90,2013-05-22 19:53:00
4:53 PM,59.0,54.0,83,29.94,10.0,East,6.9,-,N/A,,Overcast,100,2013-05-22 20:53:00
5:53 PM,57.0,53.1,87,29.94,10.0,East,8.1,-,N/A,,Overcast,100,2013-05-22 21:53:00
6:47 PM,55.4,53.6,94,29.92,5.0,East,5.8,-,0.04,Rain-Thunderstorm,Light Thunderstorms and Rain,90,2013-05-22 22:47:00
6:53 PM,55.9,53.1,90,29.97,5.0,East,5.8,-,0.05,Rain-Thunderstorm,Light Thunderstorms and Rain,100,2013-05-22 22:53:00
7:31 PM,55.4,53.6,94,29.91,7.0,East,8.1,-,0.12,Rain-Thunderstorm,Light Thunderstorms and Rain,90,2013-05-22 23:31:00
7:43 PM,55.4,53.6,94,29.93,8.0,Calm,Calm,-,0.12,,Overcast,0,2013-05-22 23:43:00
7:53 PM,55.0,53.1,93,29.97,10.0,Calm,Calm,-,0.12,,Overcast,0,2013-05-22 23:53:00
8:53 PM,53.1,51.1,93,29.99,10.0,East,4.6,-,N/A,,Overcast,90,2013-05-23 00:53:00
9:53 PM,53.1,51.1,93,30.00,5.0,NE,4.6,-,N/A,,Overcast,40,2013-05-23 01:53:00
10:53 PM,52.0,51.1,97,29.99,1.0,East,3.5,-,0.00,,Light Drizzle,90,2013-05-23 02:53:00
11:53 PM,52.0,51.1,97,29.96,1.0,Calm,Calm,-,0.00,,Light Drizzle,0,2013-05-23 03:53:00